Weather reports worldwide

Advertisment
Gustavsfors, Sweden (2426): temperature & dewpoint: 25.05.2020 00:00:00 - 31.05.2020 00:00:00 (CEST)Gustavsfors, Sweden (2426): wind speed & gusts: 25.05.2020 00:00:00 - 31.05.2020 00:00:00 (CEST)Gustavsfors, Sweden (2426): wind direction: 25.05.2020 00:00:00 - 31.05.2020 00:00:00 (CEST)Gustavsfors, Sweden (2426): reduced air pressure: 25.05.2020 00:00:00 - 31.05.2020 00:00:00 (CEST)Gustavsfors, Sweden (2426): visibility: 25.05.2020 00:00:00 - 31.05.2020 00:00:00 (CEST)Gustavsfors, Sweden (2426): precipitation: 25.05.2020 00:00:00 - 31.05.2020 00:00:00 (CEST)
Date & Time tt [°C] td [°C] ff [km/h] ff [kn] fx [km/h] fx [kn] dd ppp [hPa] vv [km] rr [mm]
31.05.2020 00:00:00 - - - - - - - - - -
30.05.2020 23:00:00 8,7 4,9 0 0 5 3 N 1032,3 50 0,0
30.05.2020 22:00:00 11,9 5,1 0 0 7 4 N 1031,2 50 0,0
30.05.2020 21:00:00 17,0 3,6 4 2 17 9 NNE 1030,1 50 0,0
30.05.2020 20:00:00 18,3 2,6 9 5 23 12 NE 1029,7 47 0,0
30.05.2020 19:00:00 18,5 3,1 8 4 22 12 NE 1029,6 47 0,0
30.05.2020 18:00:00 18,7 3,3 7 4 23 13 NNE 1029,8 50 0,0
30.05.2020 17:00:00 18,6 3,2 11 6 26 14 NNE 1030,3 50 0,0
30.05.2020 16:00:00 18,1 3,6 11 6 26 14 NE 1030,6 42 0,0
30.05.2020 15:00:00 17,8 4,4 10 5 28 15 NE 1030,9 43 0,0
30.05.2020 14:00:00 17,4 4,0 11 6 23 12 NE 1031,3 34 0,0
30.05.2020 13:00:00 16,5 4,5 9 5 27 15 NE 1031,7 40 0,0
30.05.2020 12:00:00 15,8 3,6 8 4 29 15 NNE 1032,1 45 0,0
30.05.2020 11:00:00 14,6 3,4 10 6 29 15 NNE 1032,5 35 0,0
30.05.2020 10:00:00 14,5 3,9 9 5 24 13 NE 1032,7 46 0,0
30.05.2020 09:00:00 14,3 4,0 12 6 26 14 NE 1032,5 42 0,0
30.05.2020 08:00:00 13,5 3,8 8 4 21 12 NNE 1032,5 40 0,0
30.05.2020 07:00:00 12,3 3,5 6 3 14 8 NNE 1032,4 48 0,0
30.05.2020 06:00:00 10,4 3,9 0 0 11 6 N 1032,4 50 0,0
30.05.2020 05:00:00 9,2 3,2 4 2 11 6 NNE 1032,4 50 0,0
30.05.2020 04:00:00 9,2 3,4 3 1 9 5 NNW 1032,2 50 0,0
30.05.2020 03:00:00 9,3 3,1 2 1 12 6 NNW 1031,8 50 0,0
30.05.2020 02:00:00 11,1 2,9 5 3 15 8 N 1031,1 50 0,0
30.05.2020 01:00:00 10,1 2,7 6 3 13 7 NNE 1030,7 50 0,0
30.05.2020 00:00:00 7,8 3,1 2 1 4 2 N 1030,4 50 0,0
29.05.2020 23:00:00 9,2 3,4 0 0 9 5 N 1029,7 50 0,0
29.05.2020 22:00:00 11,7 3,5 0 0 9 5 N 1028,8 50 0,0
29.05.2020 21:00:00 17,1 0,7 2 1 16 9 NNE 1027,8 50 0,0
29.05.2020 20:00:00 19,2 -1,3 3 2 18 10 N 1027,2 50 0,0
29.05.2020 19:00:00 19,8 -1,4 4 2 17 9 N 1027,1 50 0,0
29.05.2020 18:00:00 20,4 0,2 5 3 19 10 W 1027,1 50 0,0
29.05.2020 17:00:00 21,0 -0,3 5 3 19 11 W 1027,5 50 0,0
29.05.2020 16:00:00 19,7 1,2 6 3 23 12 WSW 1028,0 44 0,0
29.05.2020 15:00:00 19,8 -0,8 6 3 21 11 WNW 1028,5 37 0,0
29.05.2020 14:00:00 19,3 0,3 6 3 20 11 SW 1029,2 43 0,0
29.05.2020 13:00:00 18,3 1,7 7 4 22 12 W 1029,6 42 0,0
29.05.2020 12:00:00 16,6 0,3 5 3 14 8 W 1030,4 40 0,0
29.05.2020 11:00:00 15,3 0,7 4 2 11 6 SSE 1031,0 37 0,0
29.05.2020 10:00:00 14,8 0,6 3 2 9 5 SW 1031,2 45 0,0
29.05.2020 09:00:00 12,9 1,2 4 2 10 5 SSW 1031,7 50 0,0
29.05.2020 08:00:00 11,9 1,5 3 2 11 6 E 1031,9 48 0,0
29.05.2020 07:00:00 8,6 4,8 0 0 3 2 N 1032,4 50 0,0
29.05.2020 06:00:00 4,2 2,9 0 0 4 2 N 1032,6 50 0,0
29.05.2020 05:00:00 1,1 0,1 0 0 4 2 N 1033,0 50 0,0
29.05.2020 04:00:00 0,2 -0,7 0 0 4 2 N 1032,9 50 0,0
29.05.2020 03:00:00 1,7 0,1 0 0 3 2 N 1032,5 50 0,0
29.05.2020 02:00:00 3,1 1,1 0 0 4 2 N 1032,2 50 0,0
29.05.2020 01:00:00 4,6 1,4 0 0 9 5 N 1031,8 50 0,0
29.05.2020 00:00:00 4,8 1,6 0 0 8 4 N 1031,4 50 0,0
28.05.2020 23:00:00 6,5 2,4 0 0 3 1 N 1030,7 50 0,0
28.05.2020 22:00:00 9,6 3,6 0 0 2 1 N 1030,1 50 0,0
28.05.2020 21:00:00 11,7 2,4 0 0 8 4 N 1029,6 50 0,0
28.05.2020 20:00:00 15,7 -2,3 2 1 15 8 N 1029,2 50 0,0
28.05.2020 19:00:00 16,1 -1,9 8 4 18 10 WNW 1029,1 47 0,0
28.05.2020 18:00:00 16,7 -2,4 6 3 21 11 WNW 1029,1 50 0,0
28.05.2020 17:00:00 16,9 -0,3 4 2 16 9 WNW 1029,2 48 0,0
28.05.2020 16:00:00 16,1 -0,6 5 3 14 8 W 1029,6 48 0,0
28.05.2020 15:00:00 15,6 1,0 3 2 16 8 WNW 1029,6 50 0,0
28.05.2020 14:00:00 15,5 -1,1 4 2 16 9 WNW 1029,9 - 0,0
28.05.2020 13:00:00 16,3 0,0 8 4 21 11 W 1029,9 44 0,0
28.05.2020 12:00:00 15,3 -0,5 5 3 16 9 W 1030,4 37 0,0
28.05.2020 11:00:00 13,5 -1,3 5 3 15 8 ENE 1030,6 43 0,0
28.05.2020 10:00:00 12,9 -1,1 5 3 20 11 NNE 1031,1 45 0,0
28.05.2020 09:00:00 11,2 -1,2 7 4 16 9 NNE 1031,4 45 0,0
28.05.2020 08:00:00 10,9 1,2 8 4 16 9 NE 1031,4 48 0,0
28.05.2020 07:00:00 5,9 2,7 0 0 2 1 N 1031,7 45 0,0
28.05.2020 06:00:00 0,7 0,0 0 0 3 2 N 1031,8 49 0,0
28.05.2020 05:00:00 -1,0 -1,3 0 0 3 2 N 1031,5 50 0,0
28.05.2020 04:00:00 -1,1 -1,5 0 0 4 2 N 1031,2 50 0,0
28.05.2020 03:00:00 -0,5 -1,1 0 0 4 2 N 1030,8 50 0,0
28.05.2020 02:00:00 0,2 -0,5 0 0 3 2 N 1030,2 50 0,0
28.05.2020 01:00:00 1,2 0,2 0 0 4 2 N 1029,6 50 0,0
28.05.2020 00:00:00 2,8 1,2 0 0 2 1 N 1029,3 50 0,0
27.05.2020 23:00:00 4,9 2,1 0 0 2 1 N 1028,5 50 0,0
27.05.2020 22:00:00 8,2 3,6 0 0 3 2 N 1027,6 50 0,0
27.05.2020 21:00:00 11,6 6,5 0 0 4 2 N 1026,6 50 0,0
27.05.2020 20:00:00 12,7 4,1 0 0 8 5 N 1026,1 50 0,0
27.05.2020 19:00:00 13,2 3,3 4 2 23 13 SSW 1026,1 41 0,0
27.05.2020 18:00:00 15,4 2,5 4 2 15 8 NNW 1025,8 50 0,0
27.05.2020 17:00:00 15,0 6,3 4 2 17 9 WNW 1026,0 44 0,0
27.05.2020 16:00:00 11,1 7,6 7 4 38 21 W 1026,8 46 0,1
27.05.2020 15:00:00 14,5 3,9 8 4 24 13 N 1026,1 43 0,0
27.05.2020 14:00:00 15,2 5,4 6 4 27 14 N 1025,8 37 0,0
27.05.2020 13:00:00 14,1 4,7 6 4 29 16 N 1026,0 46 0,0
27.05.2020 12:00:00 13,9 5,5 7 4 21 12 N 1025,7 49 0,0
27.05.2020 11:00:00 15,3 4,9 4 2 16 9 WNW 1025,3 17 0,0
27.05.2020 10:00:00 14,9 6,2 5 3 14 7 SSW 1025,5 36 0,0
27.05.2020 09:00:00 14,5 7,3 5 3 17 9 W 1025,9 32 0,0
27.05.2020 08:00:00 11,7 7,6 3 1 6 4 SSE 1026,3 29 0,0
27.05.2020 07:00:00 10,7 7,6 0 0 2 1 N 1026,6 30 0,0
27.05.2020 06:00:00 5,8 4,4 0 0 4 2 N 1027,5 37 0,0
27.05.2020 05:00:00 3,5 2,9 0 0 3 1 N 1027,9 25 0,0
27.05.2020 04:00:00 4,4 3,7 2 1 6 3 N 1028,1 26 0,0
27.05.2020 03:00:00 6,4 4,6 0 0 5 3 N 1028,1 38 0,0
27.05.2020 02:00:00 7,9 5,2 0 0 10 6 N 1027,9 38 0,0
27.05.2020 01:00:00 11,8 6,1 5 3 17 9 SSW 1027,6 45 0,0
27.05.2020 00:00:00 12,3 6,3 8 4 13 7 SSW 1028,1 45 0,0
26.05.2020 23:00:00 11,7 5,8 3 1 9 5 SSW 1028,5 50 0,0
26.05.2020 22:00:00 12,4 4,4 2 1 18 10 S 1028,8 50 0,0
26.05.2020 21:00:00 15,0 3,2 10 5 22 12 SW 1028,5 50 0,0
26.05.2020 20:00:00 17,4 3,7 10 6 26 14 SW 1028,0 50 0,0
26.05.2020 19:00:00 17,8 4,0 14 7 29 16 SSW 1028,3 50 0,0
26.05.2020 18:00:00 18,0 3,1 14 8 35 19 SW 1029,0 49 0,0
26.05.2020 17:00:00 18,7 4,8 10 5 29 15 WSW 1029,1 50 0,0
26.05.2020 16:00:00 18,6 5,8 16 9 29 16 SSW 1029,5 45 0,0
26.05.2020 15:00:00 19,1 5,9 13 7 28 15 SW 1030,0 50 0,0
26.05.2020 14:00:00 19,5 5,9 11 6 27 15 SSW 1030,5 41 0,0
26.05.2020 13:00:00 18,5 4,6 15 8 31 17 SSW 1031,0 35 0,0
26.05.2020 12:00:00 18,4 4,6 14 7 29 16 SSW 1031,5 46 0,0
26.05.2020 11:00:00 19,5 7,9 13 7 28 15 S 1031,4 37 0,0
26.05.2020 10:00:00 18,4 7,2 13 7 21 11 SSW 1031,9 46 0,0
26.05.2020 09:00:00 16,5 7,2 6 4 11 6 S 1032,1 43 0,0
26.05.2020 08:00:00 13,1 8,2 3 2 5 3 SE 1032,4 43 0,0
26.05.2020 07:00:00 10,9 7,6 0 0 3 2 N 1032,8 47 0,0
26.05.2020 06:00:00 5,0 4,6 0 0 1 1 N 1033,4 50 0,0
26.05.2020 05:00:00 2,5 2,4 0 0 4 2 N 1033,6 45 0,0
26.05.2020 04:00:00 2,4 2,3 0 0 4 2 N 1033,2 46 0,0
26.05.2020 03:00:00 3,1 2,8 0 0 3 2 N 1033,1 27 0,0
26.05.2020 02:00:00 5,2 5,1 0 0 4 2 N 1032,8 33 0,0
26.05.2020 01:00:00 6,0 5,7 0 0 2 1 N 1032,5 50 0,0
26.05.2020 00:00:00 7,7 6,9 0 0 3 2 N 1032,1 50 0,0
25.05.2020 23:00:00 10,0 8,3 0 0 2 1 N 1031,4 50 0,0
25.05.2020 22:00:00 12,4 8,9 0 0 5 3 N 1031,1 50 0,0
25.05.2020 21:00:00 15,0 7,8 2 1 8 5 NNE 1030,3 50 0,0
25.05.2020 20:00:00 17,1 6,0 2 1 6 3 ENE 1029,5 50 0,0
25.05.2020 19:00:00 17,4 5,0 4 2 20 11 S 1029,1 44 0,0
25.05.2020 18:00:00 18,0 5,9 4 2 14 8 WNW 1028,7 50 0,0
25.05.2020 17:00:00 16,8 6,3 6 4 18 10 WNW 1028,5 50 0,0
25.05.2020 16:00:00 - - - - 14 7 - - - -
25.05.2020 15:00:00 17,8 5,1 4 2 12 6 S 1028,0 37 0,0
25.05.2020 14:00:00 17,4 6,6 5 3 11 6 SSW 1027,7 50 0,0
25.05.2020 13:00:00 14,8 9,6 0 0 20 11 N 1027,6 40 0,1
25.05.2020 12:00:00 14,8 7,4 3 1 13 7 ENE 1027,0 50 0,0
25.05.2020 11:00:00 14,4 7,0 6 3 15 8 E 1026,7 42 0,0
25.05.2020 10:00:00 13,6 8,4 5 3 13 7 NE 1026,0 50 0,0
25.05.2020 09:00:00 12,4 8,9 5 3 14 8 NNE 1025,2 42 0,1
25.05.2020 08:00:00 11,0 9,3 3 2 9 5 N 1024,5 47 0,0
25.05.2020 07:00:00 8,1 8,0 0 0 2 1 N 1023,9 28 0,0
25.05.2020 06:00:00 6,8 6,7 0 0 1 1 N 1022,8 22 0,0
25.05.2020 05:00:00 5,7 5,6 0 0 2 1 N 1021,9 17 0,0
25.05.2020 04:00:00 5,0 4,9 0 0 2 1 N 1021,0 16 0,0
25.05.2020 03:00:00 4,6 4,5 0 0 4 2 N 1020,1 13 0,0
25.05.2020 02:00:00 5,1 5,0 0 0 5 3 N 1019,2 0,8 0,0
25.05.2020 01:00:00 6,2 6,1 0 0 4 2 N 1018,2 10 0,0
25.05.2020 00:00:00 6,6 6,5 0 0 2 1 N 1017,1 16 0,0

tt = temperature
td = dewpoint
ff = wind speed
fx = gusts
dd = wind direction
ppp = reduced air pressure
vv = visibility
rr = precipitation

Next stations